| time (UTC) | temp F | wind direction | speed knots | gust knots | rain 1hr in | rain 24hr in | rain mn in | humidity % | barometer mb |
| 20260505093112 | 54 | 11 | 1.7 | 3.5 | 0.00 | 0.00 | 0.00 | 52 | |
| 20260505092102 | 55 | 28 | 0.0 | 4.3 | 0.00 | 0.00 | 0.00 | 50 | |
| 20260505091559 | 55 | 14 | 1.7 | 2.6 | 0.00 | 0.00 | 0.00 | 50 | |
| 20260505091055 | 56 | 16 | 1.7 | 4.3 | 0.00 | 0.00 | 0.00 | 50 | |
| 20260505090549 | 56 | 19 | 1.7 | 4.3 | 0.00 | 0.00 | 0.00 | 50 | |
| 20260505090044 | 56 | 7 | 1.7 | 3.5 | 0.00 | 0.00 | 0.00 | 50 | |
| 20260505085540 | 55 | 23 | 3.5 | 4.3 | 0.00 | 0.00 | 0.00 | 51 | |
| 20260505084529 | 55 | 32 | 2.6 | 3.5 | 0.00 | 0.00 | 0.00 | 51 | |
| 20260505084026 | 56 | 306 | 1.7 | 4.3 | 0.00 | 0.00 | 0.00 | 49 | |
| 20260505083519 | 56 | 8 | 3.5 | 4.3 | 0.00 | 0.00 | 0.00 | 49 | |
| 20260505083016 | 56 | 16 | 3.5 | 3.5 | 0.00 | 0.00 | 0.00 | 50 | |
| 20260505082009 | 56 | 7 | 0.0 | 0.0 | 0.00 | 0.00 | 0.00 | 48 | |
| 20260505081502 | 57 | 7 | 0.0 | 0.0 | 0.00 | 0.00 | 0.00 | 47 | |
| 20260505080958 | 57 | 7 | 0.0 | 0.0 | 0.00 | 0.00 | 0.00 | 47 | |
| 20260505080455 | 58 | 7 | 0.0 | 0.0 | 0.00 | 0.00 | 0.00 | 47 | |
| 20260505075946 | 58 | 7 | 0.0 | 2.6 | 0.00 | 0.00 | 0.00 | 46 | |
| 20260505074935 | 58 | 18 | 1.7 | 4.3 | 0.00 | 0.00 | 0.00 | 46 | |
| 20260505074427 | 59 | 23 | 0.0 | 1.7 | 0.00 | 0.00 | 0.00 | 45 | |
| 20260505073924 | 59 | 9 | 0.9 | 1.7 | 0.00 | 0.00 | 0.00 | 44 | |
| 20260505073420 | 60 | 23 | 0.9 | 1.7 | 0.00 | 0.00 | 0.00 | 43 | |
| 20260505072917 | 60 | 206 | 0.0 | 2.6 | 0.00 | 0.00 | 0.00 | 43 | |
| 20260505072412 | 60 | 22 | 1.7 | 4.3 | 0.00 | 0.00 | 0.00 | 43 | |
| 20260505071906 | 60 | 0 | 2.6 | 5.2 | 0.00 | 0.00 | 0.00 | 43 | |
| 20260505071402 | 61 | 358 | 1.7 | 4.3 | 0.00 | 0.00 | 0.00 | 42 | |
| 20260505070859 | 60 | 16 | 2.6 | 6.1 | 0.00 | 0.00 | 0.00 | 42 | |
| 20260505070352 | 61 | 327 | 3.5 | 5.2 | 0.00 | 0.00 | 0.00 | 42 | |
| 20260505065849 | 61 | 1 | 2.6 | 8.7 | 0.00 | 0.00 | 0.00 | 41 | |
| 20260505065345 | 60 | 306 | 3.5 | 7.8 | 0.00 | 0.00 | 0.00 | 43 | |
| 20260505064839 | 60 | 355 | 5.2 | 6.1 | 0.00 | 0.00 | 0.00 | 43 | |
| 20260505064335 | 60 | 23 | 3.5 | 4.3 | 0.00 | 0.00 | 0.00 | 44 | |
| 20260505063832 | 61 | 16 | 3.5 | 3.5 | 0.00 | 0.00 | 0.00 | 43 | |
| 20260505063328 | 60 | 330 | 1.7 | 4.3 | 0.00 | 0.00 | 0.00 | 43 | |
| 20260505062820 | 61 | 315 | 3.5 | 3.5 | 0.00 | 0.00 | 0.00 | 43 | |
| 20260505062315 | 61 | 345 | 1.7 | 4.3 | 0.00 | 0.00 | 0.00 | 43 | |
| 20260505061304 | 61 | 14 | 1.7 | 4.3 | 0.00 | 0.00 | 0.00 | 43 | |
| 20260505060254 | 62 | 15 | 3.5 | 5.2 | 0.00 | 0.00 | 0.00 | 43 | |
| 20260505055750 | 62 | 39 | 0.9 | 3.5 | 0.00 | 0.00 | 0.00 | 42 | |
| 20260505055246 | 63 | 9 | 2.6 | 5.2 | 0.00 | 0.00 | 0.00 | 41 | |
| 20260505054740 | 63 | 8 | 4.3 | 5.2 | 0.00 | 0.00 | 0.00 | 41 | |
| 20260505053733 | 63 | 319 | 0.0 | 4.3 | 0.00 | 0.00 | 0.00 | 41 | |
| 20260505053230 | 63 | 355 | 3.5 | 4.3 | 0.00 | 0.00 | 0.00 | 41 | |
| 20260505052726 | 62 | 5 | 0.0 | 4.3 | 0.00 | 0.00 | 0.00 | 42 | |
| 20260505052219 | 62 | 21 | 1.7 | 5.2 | 0.00 | 0.00 | 0.00 | 42 | |
| 20260505051716 | 63 | 25 | 3.5 | 3.5 | 0.00 | 0.00 | 0.00 | 41 | |
| 20260505051213 | 64 | 338 | 0.9 | 3.5 | 0.00 | 0.00 | 0.00 | 39 | |
| 20260505050706 | 65 | 240 | 1.7 | 3.5 | 0.00 | 0.00 | 0.00 | 39 | |
| 20260505050202 | 64 | 347 | 1.7 | 4.3 | 0.00 | 0.00 | 0.00 | 38 | |
| 20260505041626 | 69 | 299 | 0.0 | 6.1 | 0.00 | 0.00 | 0.00 | 34 | |
| 20260505041123 | 69 | 345 | 5.2 | 7.0 | 0.00 | 0.00 | 0.00 | 33 | |
| 20260505040619 | 69 | 358 | 5.2 | 7.8 | 0.00 | 0.00 | 0.00 | 32 | |
| 20260505035607 | 69 | 307 | 6.1 | 6.1 | 0.00 | 0.00 | 0.00 | 33 | |
| 20260505035100 | 69 | 313 | 5.2 | 7.8 | 0.00 | 0.00 | 0.00 | 33 | |
| 20260505034049 | 69 | 322 | 5.2 | 4.3 | 0.00 | 0.00 | 0.00 | 33 | |
| 20260505033546 | 69 | 357 | 1.7 | 4.3 | 0.00 | 0.00 | 0.00 | 32 | |
| 20260505033042 | 70 | 358 | 4.3 | 2.6 | 0.00 | 0.00 | 0.00 | 31 | |
| 20260505032539 | 72 | 330 | 0.9 | 2.6 | 0.00 | 0.00 | 0.00 | 30 | |
| 20260505031028 | 74 | 343 | 1.7 | 3.5 | 0.00 | 0.00 | 0.00 | 28 | |
| 20260505030525 | 75 | 274 | 2.6 | 2.6 | 0.00 | 0.00 | 0.00 | 27 | |
| 20260505025014 | 77 | 234 | 2.6 | 6.1 | 0.00 | 0.00 | 0.00 | 24 | |
| 20260505024507 | 77 | 255 | 3.5 | 6.1 | 0.00 | 0.00 | 0.00 | 24 | |
| 20260505024004 | 78 | 247 | 1.7 | 7.0 | 0.00 | 0.00 | 0.00 | 23 | |
| 20260505023500 | 77 | 246 | 3.5 | 7.8 | 0.00 | 0.00 | 0.00 | 23 | |
| 20260505022957 | 78 | 240 | 6.1 | 7.8 | 0.00 | 0.00 | 0.00 | 22 | |
| 20260505022450 | 78 | 302 | 3.5 | 7.8 | 0.00 | 0.00 | 0.00 | 22 | |
| 20260505021945 | 78 | 258 | 6.1 | 10.4 | 0.00 | 0.00 | 0.00 | 22 | |
| 20260505021442 | 78 | 271 | 6.1 | 12.2 | 0.00 | 0.00 | 0.00 | 21 | |
| 20260505020434 | 78 | 257 | 5.2 | 10.4 | 0.00 | 0.00 | 0.00 | 22 | |
| 20260505015930 | 79 | 262 | 6.1 | 10.4 | 0.00 | 0.00 | 0.00 | 21 | |
| 20260505014918 | 79 | 233 | 3.5 | 8.7 | 0.00 | 0.00 | 0.00 | 22 | |
| 20260505014414 | 80 | 226 | 7.0 | 9.6 | 0.00 | 0.00 | 0.00 | 22 | |
| 20260505013404 | 80 | 250 | 9.6 | 10.4 | 0.00 | 0.00 | 0.00 | 21 | |
| 20260505012900 | 79 | 248 | 7.8 | 10.4 | 0.00 | 0.00 | 0.00 | 21 | |
| 20260505012357 | 79 | 255 | 8.7 | 13.9 | 0.00 | 0.00 | 0.00 | 22 | |
| 20260505011347 | 80 | 215 | 8.7 | 13.0 | 0.00 | 0.00 | 0.00 | 21 | |
| 20260505010842 | 80 | 251 | 5.2 | 12.2 | 0.00 | 0.00 | 0.00 | 21 | |
| 20260505010339 | 80 | 236 | 8.7 | 11.3 | 0.00 | 0.00 | 0.00 | 20 | |
| 20260505005835 | 80 | 264 | 7.0 | 13.0 | 0.00 | 0.00 | 0.00 | 21 | |
| 20260505004826 | 80 | 244 | 5.2 | 10.4 | 0.00 | 0.00 | 0.00 | 21 | |
| 20260505004322 | 80 | 229 | 4.3 | 10.4 | 0.00 | 0.00 | 0.00 | 20 | |
| 20260505003814 | 81 | 209 | 8.7 | 14.8 | 0.00 | 0.00 | 0.00 | 21 | |
| 20260505003311 | 80 | 239 | 11.3 | 10.4 | 0.00 | 0.00 | 0.00 | 20 | |
| 20260505002808 | 81 | 265 | 6.1 | 8.7 | 0.00 | 0.00 | 0.00 | 22 | |
| 20260505002304 | 80 | 234 | 6.1 | 12.2 | 0.00 | 0.00 | 0.00 | 21 | |
| 20260505000749 | 80 | 223 | 6.1 | 12.2 | 0.00 | 0.00 | 0.00 | 20 | |
| 20260505000243 | 80 | 230 | 8.7 | 13.0 | 0.00 | 0.00 | 0.00 | 22 | |
| 20260504235231 | 80 | 234 | 9.6 | 13.0 | 0.00 | 0.00 | 0.00 | 21 | |
| 20260504234727 | 80 | 227 | 8.7 | 13.9 | 0.00 | 0.00 | 0.00 | 22 | |
| 20260504234223 | 80 | 236 | 11.3 | 12.2 | 0.00 | 0.00 | 0.00 | 22 | |
| 20260504232206 | 82 | 239 | 11.3 | 12.2 | 0.00 | 0.00 | 0.00 | 20 | |
| 20260504231659 | 82 | 227 | 9.6 | 8.7 | 0.00 | 0.00 | 0.00 | 21 | |
| 20260504231155 | 81 | 315 | 3.5 | 10.4 | 0.00 | 0.00 | 0.00 | 22 | |
| 20260504230652 | 81 | 279 | 1.7 | 10.4 | 0.00 | 0.00 | 0.00 | 21 | |
| 20260504225641 | 81 | 203 | 9.6 | 10.4 | 0.00 | 0.00 | 0.00 | 22 | |
| 20260504224126 | 80 | 236 | 5.2 | 10.4 | 0.00 | 0.00 | 0.00 | 21 | |
| 20260504223621 | 81 | 253 | 8.7 | 11.3 | 0.00 | 0.00 | 0.00 | 22 | |
| 20260504223118 | 80 | 195 | 4.3 | 8.7 | 0.00 | 0.00 | 0.00 | 22 | |
| 20260504222614 | 81 | 227 | 2.6 | 8.7 | 0.00 | 0.00 | 0.00 | 21 | |
| 20260504222110 | 82 | 215 | 6.1 | 8.7 | 0.00 | 0.00 | 0.00 | 21 | |
| 20260504221102 | 82 | 194 | 7.0 | 11.3 | 0.00 | 0.00 | 0.00 | 21 | |
| 20260504220558 | 82 | 199 | 4.3 | 7.8 | 0.00 | 0.00 | 0.00 | 21 | |
| 20260504220052 | 82 | 208 | 6.1 | 9.6 | 0.00 | 0.00 | 0.00 | 20 | |
| 20260504215549 | 81 | 198 | 7.0 | 9.6 | 0.00 | 0.00 | 0.00 | 20 | |
| 20260504214542 | 80 | 277 | 1.7 | 13.0 | 0.00 | 0.00 | 0.00 | 22 | |
| 20260504213532 | 81 | 300 | 3.5 | 8.7 | 0.00 | 0.00 | 0.00 | 19 | |
| 20260504213028 | 83 | 229 | 6.1 | 8.7 | 0.00 | 0.00 | 0.00 | 20 | |
| 20260504212520 | 81 | 237 | 3.5 | 9.6 | 0.00 | 0.00 | 0.00 | 23 | |
| 20260504212017 | 80 | 255 | 5.2 | 10.4 | 0.00 | 0.00 | 0.00 | 20 | |
| 20260504211513 | 80 | 234 | 9.6 | 6.1 | 0.00 | 0.00 | 0.00 | 21 | |
| 20260504211010 | 80 | 178 | 4.3 | 9.6 | 0.00 | 0.00 | 0.00 | 21 | |
| 20260504210503 | 80 | 196 | 8.7 | 11.3 | 0.00 | 0.00 | 0.00 | 24 | |
| 20260504205959 | 80 | 202 | 7.0 | 10.4 | 0.00 | 0.00 | 0.00 | 21 | |
| 20260504205451 | 80 | 293 | 7.8 | 13.0 | 0.00 | 0.00 | 0.00 | 21 | |
| 20260504204948 | 80 | 201 | 7.8 | 8.7 | 0.00 | 0.00 | 0.00 | 21 | |
| 20260504204444 | 81 | 201 | 7.8 | 8.7 | 0.00 | 0.00 | 0.00 | 22 | |
| 20260504203941 | 81 | 178 | 2.6 | 13.9 | 0.00 | 0.00 | 0.00 | 20 | |
| 20260504203437 | 79 | 298 | 0.0 | 12.2 | 0.00 | 0.00 | 0.00 | 23 | |
| 20260504202430 | 79 | 251 | 7.8 | 13.0 | 0.00 | 0.00 | 0.00 | 22 | |
| 20260504201927 | 80 | 292 | 4.3 | 9.6 | 0.00 | 0.00 | 0.00 | 21 | |
| 20260504201423 | 81 | 278 | 1.7 | 9.6 | 0.00 | 0.00 | 0.00 | 23 | |
| 20260504200918 | 79 | 189 | 7.0 | 10.4 | 0.00 | 0.00 | 0.00 | 24 | |
| 20260504200410 | 77 | 199 | 7.8 | 9.6 | 0.00 | 0.00 | 0.00 | 24 | |
| 20260504195403 | 79 | 230 | 2.6 | 12.2 | 0.00 | 0.00 | 0.00 | 24 | |
| 20260504194857 | 78 | 234 | 7.8 | 10.4 | 0.00 | 0.00 | 0.00 | 25 | |
| 20260504194353 | 78 | 205 | 7.8 | 8.7 | 0.00 | 0.00 | 0.00 | 24 | |
| 20260504193849 | 77 | 232 | 4.3 | 9.6 | 0.00 | 0.00 | 0.00 | 24 | |
| 20260504193343 | 77 | 281 | 7.0 | 10.4 | 0.00 | 0.00 | 0.00 | 25 | |
| 20260504192840 | 78 | 220 | 7.0 | 7.8 | 0.00 | 0.00 | 0.00 | 25 | |
| 20260504192336 | 78 | 212 | 6.1 | 9.6 | 0.00 | 0.00 | 0.00 | 27 | |
| 20260504191832 | 77 | 175 | 4.3 | 7.8 | 0.00 | 0.00 | 0.00 | 26 | |
| 20260504191329 | 77 | 201 | 5.2 | 8.7 | 0.00 | 0.00 | 0.00 | 27 | |
| 20260504190826 | 76 | 277 | 6.1 | 8.7 | 0.00 | 0.00 | 0.00 | 28 | |
| 20260504185816 | 76 | 164 | 6.1 | 7.8 | 0.00 | 0.00 | 0.00 | 28 | |
| 20260504185312 | 77 | 53 | 3.5 | 5.2 | 0.00 | 0.00 | 0.00 | 27 | |
| 20260504184806 | 74 | 340 | 1.7 | 6.1 | 0.00 | 0.00 | 0.00 | 30 | |
| 20260504183758 | 73 | 232 | 5.2 | 7.0 | 0.00 | 0.00 | 0.00 | 31 | |
| 20260504183255 | 74 | 209 | 4.3 | 5.2 | 0.00 | 0.00 | 0.00 | 29 | |
| 20260504182748 | 74 | 272 | 2.6 | 2.6 | 0.00 | 0.00 | 0.00 | 30 | |
| 20260504182244 | 73 | 15 | 0.9 | 4.3 | 0.00 | 0.00 | 0.00 | 31 | |
| 20260504181737 | 73 | 205 | 0.9 | 3.5 | 0.00 | 0.00 | 0.00 | 32 | |
| 20260504181233 | 72 | 237 | 1.7 | 4.3 | 0.00 | 0.00 | 0.00 | 34 | |
| 20260504180729 | 71 | 156 | 3.5 | 6.1 | 0.00 | 0.00 | 0.00 | 34 | |
| 20260504180225 | 71 | 258 | 3.5 | 6.1 | 0.00 | 0.00 | 0.00 | 35 | |
| 20260504175721 | 71 | 219 | 5.2 | 7.8 | 0.00 | 0.00 | 0.00 | 35 | |
| 20260504175216 | 70 | 136 | 0.0 | 5.2 | 0.00 | 0.00 | 0.00 | 34 | |
| 20260504174713 | 70 | 198 | 3.5 | 0.0 | 0.00 | 0.00 | 0.00 | 34 | |
| 20260504174209 | 69 | 171 | 0.0 | 0.0 | 0.00 | 0.00 | 0.00 | 34 | |
| 20260504173702 | 70 | 171 | 0.0 | 0.0 | 0.00 | 0.00 | 0.00 | 34 | |
| 20260504172655 | 68 | 171 | 0.0 | 5.2 | 0.00 | 0.00 | 0.00 | 36 | |
| 20260504172151 | 68 | 194 | 4.3 | 4.3 | 0.00 | 0.00 | 0.00 | 38 | |
| 20260504171645 | 68 | 180 | 1.7 | 6.1 | 0.00 | 0.00 | 0.00 | 41 | |
| 20260504171141 | 67 | 208 | 1.7 | 3.5 | 0.00 | 0.00 | 0.00 | 40 | |
| 20260504170638 | 67 | 241 | 1.7 | 4.3 | 0.00 | 0.00 | 0.00 | 42 | |
| 20260504170131 | 66 | 172 | 0.0 | 4.3 | 0.00 | 0.00 | 0.00 | 42 | |
| 20260504150951 | 60 | 202 | 0.0 | 0.0 | 0.00 | 0.00 | 0.00 | 52 | |
| 20260504150443 | 58 | 202 | 0.0 | 0.0 | 0.00 | 0.00 | 0.00 | 54 | |
| 20260504140853 | 55 | 33 | 0.0 | 0.0 | 0.00 | 0.00 | 0.00 | 58 | |
| 20260504140350 | 54 | 33 | 0.0 | 0.0 | 0.00 | 0.00 | 0.00 | 60 | |
| 20260504130757 | 50 | 35 | 0.0 | 1.7 | 0.00 | 0.00 | 0.00 | 62 | |
| 20260504130253 | 50 | 26 | 0.0 | 2.6 | 0.00 | 0.00 | 0.00 | 63 | |
| 20260504110606 | 53 | 30 | 1.7 | 3.5 | 0.00 | 0.00 | 0.00 | 57 |